Regional Weather Roundup
Issued by NWS Green Bay, WI

Home | Current Version | Previous Version | Graphics & Text | Print | Product List | Glossary Off
Versions: 1 2 3 4 5 6 7 8 9 10 11 12 13 14 15 16 17 18 19 20 21 22 23 24 25 26 27 28 29 30 31 32 33 34 35 36 37 38 39 40 41 42 43 44 45 46 47 48 49 50

000
ASUS43 KGRB 040300
RWRGRB

NORTH-CENTRAL AND NORTHEAST WISCONSIN REGIONAL WEATHER ROUNDUP
NATIONAL WEATHER SERVICE GREEN BAY WI
1000 PM CDT FRI JUL 03 2015

WIZ005-009-010>012-018-019-040400-
NORTH CENTRAL WISCONSIN

CITY           SKY/WX    TMP DP  RH WIND       PRES   REMARKS
IRONWOOD       PTCLDY    61  61 100 CALM      29.87R
MANITOWISH WTR NOT AVBL
ARBOR VITAE    NOT AVBL
EAGLE RIVER    NOT AVBL
LAND O LAKES   NOT AVBL
RHINELANDER    CLOUDY    67  59  75 VRB3      29.95R
PHILLIPS       NOT AVBL
ANTIGO         NOT AVBL
TOMAHAWK       NOT AVBL
MERRILL        NOT AVBL
$$

WIZ013-073-040400-
NORTHEAST WISCONSIN

CITY           SKY/WX    TMP DP  RH WIND       PRES   REMARKS
IRON MOUNTAIN  PTCLDY    63  57  81 CALM      29.87R
MARINETTE      CLEAR     66  55  68 W5        29.87R
$$

WIZ017-030-035>037-045-040400-
CENTRAL WISCONSIN

CITY           SKY/WX    TMP DP  RH WIND       PRES   REMARKS
MEDFORD        NOT AVBL
WAUSAU         CLEAR     69  56  62 W7        29.90R
MOSINEE        PTCLDY    64  55  72 W5        29.93R
MARSHFIELD     MOCLDY    65  57  75 SW5       29.92R
WISC RAPIDS    PTCLDY    65  57  75 W5        29.93R
STEVENS POINT  NOT AVBL
WAUPACA        NOT AVBL
SHAWANO        NOT AVBL
CLINTONVILLE   NOT AVBL
$$

WIZ038-039-048-051-040400-
FOX VALLEY

CITY           SKY/WX    TMP DP  RH WIND       PRES   REMARKS
NWS GREEN BAY  PTCLDY    70  57  63 SW3       29.90R
APPLETON       MOCLDY    66  55  68 SW6       29.91S
OSHKOSH        CLEAR     66  56  70 SW3       29.91R
FOND DU LAC    CLEAR     64  56  75 S6        29.91S
$$

WIZ022-050-052-040400-
EAST CENTRAL WISCONSIN

CITY           SKY/WX    TMP DP  RH WIND       PRES   REMARKS
STURGEON BAY   CLEAR     64  50  59 S7        29.91S
MANITOWOC      NOT AVBL
SHEBOYGAN      CLEAR     60  52  74 S3        29.92S
$$

LMZ563-521-522-541>543-040400-
LAKESHORE

STATION/POSITION TIME  TEMP    WIND        PRES    VSBY  WAVE
                       AIR SEA DIR/SP/G                  HT/PER
                 (UTC) (F)     (DEG/KT/KT) (MB)    (MI)  (FT/S)
SHEBOYGAN LKSHOR 0200   64     200/  7/  8 1013.3R
KEWAUNEE LKSHORE 0200   63     180/  9/ 10 1011.8F
ALGOMA MARINA    0210          230/ 12/ 13   N/A
NORTHPORT PIER   0200   65     170/  4/  8 1011.5S
N MID LAKE BUOY  0150   51 43  210/ 12/ 14 1011.4F         2/ 4
CHAMBERS ISLAND  0200   70     190/  4/ 12 1011.2F
MENOMINEE LKSHOR 0200   71     200/  7/ 10 1011.9F
$$



USA.gov is the U.S. government's official web portal to all federal, state and local government web resources and services.